Fairfield, IL

11:53 PM CST on February 24, 2018 (GMT -0600)
Fairfield Municipal

Weather History for KFWC - April, 2013

Change the Weather History Date:

Friday, April 19, 2013

  Actual Average (KEVV) Record (KEVV)
Temperature  
Mean Temperature 44 °F -  
Max Temperature 48 °F 69 °F 86 °F (1971)
Min Temperature 37 °F 47 °F 27 °F (1983)
Degree Days  
Heating Degree Days 22    
Moisture  
Dew Point 32 °F    
Average Humidity 65    
Maximum Humidity 87    
Minimum Humidity 46    
Precipitation  
Precipitation 0.02 in - - ()
Sea Level Pressure  
Sea Level Pressure 29.89 in    
Wind  
Wind Speed - (North)    
Max Wind Speed -    
Max Gust Speed -    
Visibility 10 miles    
Events Rain    
Averages and records for this station are not official NWS values.
T = Trace of Precipitation, MM = Missing Value Source: NWS Daily Summary

Daily Weather History Graph

Daily Weather History Graph

Search for Another Location

Airport or City:

Trip Planner

Search our weather history database for the weather conditions in past years. The results will help you decide how hot, cold, wet, or windy it might be!

Date:

Astronomy

Apr. 19, 2013 Rise Set
Actual Time 6:11 AM CDT 7:34 PM CDT
Civil Twilight 5:44 AM CDT 8:01 PM CDT
Nautical Twilight 5:11 AM CDT 8:35 PM CDT
Astronomical Twilight 4:36 AM CDT 9:09 PM CDT
Moon 1:23 PM CDT (4/19) 2:22 AM CDT (4/19)
Length of Visible Light 14h 17m
Length of Day
13h 22m
First Quarter, 62% of the Moon is Illuminated
Apr 19
First Quarter
Apr 25
Full
May 2
Last Quarter
May 9
New
May 17
First Quarter

Hourly Weather History & Observations

Time (CDT) Temp. Dew Point Humidity Pressure Visibility Wind Dir Wind Speed Gust Speed Precip Events Conditions
12:15 AM 42.8 °F 39.2 °F 87% 29.70 in 10.0 mi North - - 0.02 in Rain Light Rain
12:35 AM 42.8 °F 39.2 °F 87% 29.71 in 10.0 mi North - - 0.02 in   Light Drizzle
12:55 AM 42.8 °F 37.4 °F 81% 29.72 in 10.0 mi North - - 0.02 in   Scattered Clouds
1:15 AM 42.8 °F 37.4 °F 81% 29.73 in 10.0 mi North - - N/A   Mostly Cloudy
1:35 AM 42.8 °F 37.4 °F 81% 29.72 in 10.0 mi North - - N/A   Mostly Cloudy
1:55 AM 42.8 °F 37.4 °F 81% 29.73 in 10.0 mi North - - N/A   Overcast
2:15 AM 42.8 °F 35.6 °F 76% 29.73 in 10.0 mi North - - N/A   Overcast
2:35 AM 42.8 °F 35.6 °F 76% 29.74 in 10.0 mi North - - N/A   Overcast
2:55 AM 42.8 °F 35.6 °F 76% 29.74 in 10.0 mi North - - N/A   Overcast
3:15 AM 42.8 °F 33.8 °F 70% 29.75 in 10.0 mi North - - N/A   Overcast
3:35 AM 42.8 °F 35.6 °F 76% 29.75 in 10.0 mi North - - N/A   Overcast
3:55 AM 41.0 °F 33.8 °F 76% 29.76 in 10.0 mi North - - N/A   Overcast
4:15 AM 41.0 °F 33.8 °F 76% 29.76 in 10.0 mi North - - N/A   Overcast
4:35 AM 41.0 °F 33.8 °F 76% 29.77 in 10.0 mi North - - N/A   Overcast
4:55 AM 41.0 °F 32.0 °F 70% 29.77 in 10.0 mi North - - N/A   Overcast
5:15 AM 41.0 °F 33.8 °F 76% 29.78 in 10.0 mi North - - N/A   Overcast
5:35 AM 41.0 °F 33.8 °F 76% 29.78 in 10.0 mi North - - N/A   Overcast
5:55 AM 41.0 °F 33.8 °F 76% 29.79 in 10.0 mi North - - N/A   Overcast
6:15 AM 41.0 °F 33.8 °F 76% 29.80 in 10.0 mi North - - N/A   Overcast
6:35 AM 41.0 °F 32.0 °F 70% 29.81 in 10.0 mi North - - N/A   Overcast
6:55 AM 39.2 °F 30.2 °F 70% 29.82 in 10.0 mi North - - N/A   Overcast
7:15 AM 39.2 °F 30.2 °F 70% 29.83 in 10.0 mi North - - N/A   Overcast
7:35 AM 39.2 °F 32.0 °F 75% 29.84 in 10.0 mi North - - N/A   Overcast
7:55 AM 39.2 °F 32.0 °F 75% 29.85 in 10.0 mi North - - N/A   Overcast
8:15 AM 39.2 °F 32.0 °F 75% 29.86 in 10.0 mi North - - N/A   Overcast
8:35 AM 39.2 °F 30.2 °F 70% 29.86 in 10.0 mi North - - N/A   Overcast
8:55 AM 39.2 °F 30.2 °F 70% 29.87 in 10.0 mi North - - N/A   Overcast
9:15 AM 41.0 °F 30.2 °F 65% 29.87 in 10.0 mi North - - N/A   Overcast
9:35 AM 41.0 °F 28.4 °F 61% 29.87 in 10.0 mi North - - N/A   Overcast
9:55 AM 41.0 °F 28.4 °F 61% 29.87 in 10.0 mi North - - N/A   Overcast
10:15 AM 41.0 °F 28.4 °F 61% 29.87 in 10.0 mi North - - N/A   Overcast
10:35 AM 42.8 °F 30.2 °F 61% 29.88 in 10.0 mi North - - N/A   Overcast
10:55 AM 42.8 °F 32.0 °F 66% 29.88 in 10.0 mi North - - N/A   Overcast
11:15 AM 42.8 °F 30.2 °F 61% 29.89 in 10.0 mi North - - N/A   Overcast
11:35 AM 42.8 °F 30.2 °F 61% 29.89 in 10.0 mi North - - N/A   Overcast
11:55 AM 42.8 °F 30.2 °F 61% 29.91 in 10.0 mi North - - N/A   Overcast
12:15 PM 42.8 °F 32.0 °F 66% 29.91 in 10.0 mi North - - N/A   Overcast
12:35 PM 42.8 °F 30.2 °F 61% 29.91 in 10.0 mi North - - N/A   Overcast
12:55 PM 42.8 °F 30.2 °F 61% 29.92 in 10.0 mi North - - N/A   Overcast
1:15 PM 42.8 °F 32.0 °F 66% 29.91 in 10.0 mi North - - N/A   Overcast
1:35 PM 42.8 °F 32.0 °F 66% 29.91 in 10.0 mi North - - N/A   Overcast
1:55 PM 42.8 °F 30.2 °F 61% 29.92 in 10.0 mi North - - N/A   Overcast
2:15 PM 44.6 °F 30.2 °F 57% 29.92 in 10.0 mi North - - N/A   Overcast
2:35 PM 44.6 °F 30.2 °F 57% 29.92 in 10.0 mi North - - N/A   Overcast
2:55 PM 44.6 °F 30.2 °F 57% 29.92 in 10.0 mi North - - N/A   Overcast
3:15 PM 44.6 °F 30.2 °F 57% 29.92 in 10.0 mi North - - N/A   Overcast
3:35 PM 44.6 °F 30.2 °F 57% 29.92 in 10.0 mi North - - N/A   Overcast
3:55 PM 46.4 °F 30.2 °F 53% 29.92 in 10.0 mi North - - N/A   Overcast
4:15 PM 46.4 °F 30.2 °F 53% 29.92 in 10.0 mi North - - N/A   Overcast
4:35 PM 46.4 °F 30.2 °F 53% 29.93 in 10.0 mi North - - N/A   Overcast
4:55 PM 48.2 °F 30.2 °F 50% 29.93 in 10.0 mi North - - N/A   Mostly Cloudy
5:15 PM 48.2 °F 30.2 °F 50% 29.94 in 10.0 mi North - - N/A   Mostly Cloudy
5:35 PM 48.2 °F 30.2 °F 50% 29.94 in 10.0 mi North - - N/A   Mostly Cloudy
5:55 PM 48.2 °F 30.2 °F 50% 29.95 in 10.0 mi North - - N/A   Mostly Cloudy
6:15 PM 48.2 °F 28.4 °F 46% 29.96 in 10.0 mi North - - N/A   Mostly Cloudy
6:35 PM 46.4 °F 28.4 °F 50% 29.96 in 10.0 mi North - - N/A   Mostly Cloudy
6:55 PM 48.2 °F 30.2 °F 50% 29.96 in 10.0 mi North - - N/A   Overcast
7:15 PM 46.4 °F 28.4 °F 50% 29.97 in 10.0 mi North - - N/A   Overcast
7:35 PM 46.4 °F 30.2 °F 53% 29.99 in 10.0 mi North - - N/A   Overcast
7:55 PM 46.4 °F 28.4 °F 50% 30.00 in 10.0 mi North - - N/A   Overcast
8:15 PM 46.4 °F 26.6 °F 46% 30.01 in 10.0 mi North - - N/A   Overcast
8:35 PM 46.4 °F 26.6 °F 46% 30.02 in 10.0 mi North - - N/A   Scattered Clouds
8:55 PM 44.6 °F 28.4 °F 53% 30.02 in 10.0 mi North - - N/A   Scattered Clouds
9:15 PM 44.6 °F 28.4 °F 53% 30.03 in 10.0 mi North - - N/A   Clear
9:35 PM 42.8 °F 28.4 °F 57% 30.04 in 10.0 mi North - - N/A   Clear
9:55 PM 42.8 °F 30.2 °F 61% 30.05 in 10.0 mi North - - N/A   Clear
10:15 PM 41.0 °F 30.2 °F 65% 30.05 in 10.0 mi North - - N/A   Clear
10:35 PM 39.2 °F 30.2 °F 70% 30.06 in 10.0 mi North - - N/A   Clear
10:55 PM 39.2 °F 30.2 °F 70% 30.06 in 10.0 mi North - - N/A   Clear
11:15 PM 39.2 °F 32.0 °F 75% 30.06 in 10.0 mi North - - N/A   Clear
11:35 PM 39.2 °F 32.0 °F 75% 30.07 in 10.0 mi North - - N/A   Clear
11:55 PM 37.4 °F 32.0 °F 81% 30.07 in 10.0 mi North - - N/A   Clear